Starlink 32005

operational
NORAD ID: 60034 Int'l Des: 2024-111 Owner: SPXS Country: US Constellation: starlink
LEOCIRCULAR

关于 Starlink 32005

正在加载描述...

实时位置

正在加载3D地球...

即将过境

高度历史

Altitude vs Time

uPlot chart will show altitude changes over time

两行轨道根数

1 60034U 24111U 25259.16330115 -.00000241 00000-0 39822-5 0 9992
2 60034 53.1592 166.2161 0001156 71.2801 288.8325 15.30192339 72219
Epoch: Sep 16, 2025 • Age: 23 hours

当前状态

高度 478.3 km
速度 7.63 km/s
星下点 -11.59°S, 106.02°E
发射日期 Jun 8, 2024
运行时间 1.2 years
类型 internet

技术详情

分类 Payload
质量 730.00 kg
干质量 700.00 kg
总质量 730.00 kg
长度 0.30 m
直径 4.10 m
跨度 29.00 m
形状 Box + pan
制造商 SPXS
平台类型 Starlink V2M
阶段状态 In Orbit
所有者/国家 SPXS/US

大型星座

Loading constellations...